Weather in Melchkhi

Russia / Chechen Republic     43°18′19″N   46°11′14″E
temp.,
°C
wind,
m/s
gust,
m/s
humid.,
%
clouds,
%
prec.,
mm/h
press.,
hPa
HPBL,
m
19 april, mon
mon1900:00+12ese1179100 0.0 101712
03:00+11n0182100 0.0 101711
06:00+12s1184100 0.0 101713
09:00+19ne346110 0.0 1015502
12:00+22ne564672 0.0 1015990
15:00+20ene664819 0.0 1015800
18:00+16ene36615 0.0 1013198
21:00+13w117195 0.0 101412
20 april, tue
tue2000:00+13ene0171100 0.0 101311
03:00+12nnw1177100 0.0 101312
06:00+13e1177100 0.0 101215
09:00+18ene3460100 0.0 1010331
12:00+24ene454683 0.0 1006471
15:00+26ene454385 0.0 1004491
18:00+19ne226798 0.0 100355
21:00+17wnw3769100 0.0 1007197
21 april, wed
wed2100:00+15wsw2684100 0.9 1010213
03:00+15w7128896 1.9 1013732
06:00+13wsw71279100 1.1 1016653
09:00+15wnw676993 1.1 10171256
12:00+15nw565878 0.0 10181021
15:00+16nnw4455100 0.0 10181125
18:00+14nnw357396 0.1 1020440
21:00+12w1177100 0.9 102162
22 april, thu
thu2200:00+11wnw238351 0.0 102185
03:00+11wsw228391 0.0 102134
06:00+11w2480100 0.0 1022163
09:00+14wnw336347 0.0 1022781
12:00+15nw556581 0.0 10231037
15:00+14wnw346896 0.2 10231047
18:00+13wsw2478100 0.2 1023145
21:00+11wsw2391100 0.8 1023146
23 april, fri
fri2300:00+10w2694100 0.3 1023332
03:00+10w3695100 4.8 1023355
06:00+10wsw2593100 1.0 1023299
09:00+10wsw2487100 2.1 1023269
12:00+11wsw248199 0.3 1022308
15:00+17wnw225792 0.3 10211061
18:00+15wsw0165100 0.0 102011
21:00+12ssw227296 0.0 102119